Time,TemperatureF,DewpointF,PressureIn,WindDirection,WindDirectionDegrees,WindSpeedMPH,WindSpeedGustMPH,Humidity,HourlyPrecipIn,Conditions,Clouds,dailyrainin,SoftwareType,DateUTC
2013-03-07 00:01:00,27.0,23.0,30.25,SSE,163,4.0,8.0,84,0.00,,,0.00,,2013-03-07 06:01:00,
2013-03-07 00:11:00,27.0,23.0,30.25,SSE,163,4.0,8.0,84,0.00,,,0.00,,2013-03-07 06:11:00,
2013-03-07 00:21:00,26.0,22.0,30.26,SSE,167,3.0,5.0,84,0.00,,,0.00,,2013-03-07 06:21:00,
2013-03-07 00:32:00,26.0,22.0,30.26,SSE,167,3.0,5.0,84,0.00,,,0.00,,2013-03-07 06:32:00,
2013-03-07 00:42:00,26.0,22.0,30.26,SSE,167,3.0,5.0,84,0.00,,,0.00,,2013-03-07 06:42:00,
2013-03-07 00:52:00,25.0,21.0,30.26,SSE,163,4.0,6.0,86,0.00,,,0.00,,2013-03-07 06:52:00,
2013-03-07 01:01:00,25.0,22.0,30.25,SSE,159,6.0,9.0,87,0.00,,,0.00,,2013-03-07 07:01:00,
2013-03-07 01:11:00,25.0,22.0,30.25,SSE,159,6.0,9.0,87,0.00,,,0.00,,2013-03-07 07:11:00,
2013-03-07 01:21:00,25.0,21.0,30.24,SSE,165,7.0,10.0,86,0.00,,,0.00,,2013-03-07 07:21:00,
2013-03-07 01:32:00,25.0,21.0,30.24,South,171,7.0,10.0,85,0.00,,,0.00,,2013-03-07 07:32:00,
2013-03-07 01:42:00,25.0,21.0,30.24,South,171,7.0,10.0,85,0.00,,,0.00,,2013-03-07 07:42:00,
2013-03-07 01:52:00,25.0,21.0,30.24,SSE,157,8.0,11.0,85,0.00,,,0.00,,2013-03-07 07:52:00,
2013-03-07 02:02:00,25.0,21.0,30.24,SSE,168,6.0,11.0,86,0.00,,,0.00,,2013-03-07 08:02:00,
2013-03-07 02:12:00,25.0,21.0,30.24,SSE,168,6.0,11.0,86,0.00,,,0.00,,2013-03-07 08:12:00,
2013-03-07 02:22:00,25.0,21.0,30.24,South,174,7.0,10.0,86,0.00,,,0.00,,2013-03-07 08:22:00,
2013-03-07 02:33:00,25.0,21.0,30.23,SSE,160,7.0,11.0,86,0.00,,,0.00,,2013-03-07 08:33:00,
2013-03-07 02:43:00,25.0,21.0,30.23,SSE,160,7.0,11.0,86,0.00,,,0.00,,2013-03-07 08:43:00,
2013-03-07 02:52:00,25.0,21.0,30.23,South,171,7.0,12.0,86,0.00,,,0.00,,2013-03-07 08:52:00,
2013-03-07 03:03:00,25.0,21.0,30.22,South,171,8.0,12.0,86,0.00,,,0.00,,2013-03-07 09:03:00,
2013-03-07 03:13:00,25.0,21.0,30.22,South,171,8.0,12.0,86,0.00,,,0.00,,2013-03-07 09:13:00,
2013-03-07 03:23:00,24.0,20.0,30.22,SSE,164,8.0,10.0,86,0.00,,,0.00,,2013-03-07 09:23:00,
2013-03-07 03:33:00,24.0,20.0,30.22,SE,146,6.0,13.0,86,0.00,,,0.00,,2013-03-07 09:33:00,
2013-03-07 03:42:00,24.0,20.0,30.22,SE,146,6.0,13.0,86,0.00,,,0.00,,2013-03-07 09:42:00,
2013-03-07 03:52:00,24.0,20.0,30.21,SE,144,6.0,11.0,86,0.00,,,0.00,,2013-03-07 09:52:00,
2013-03-07 04:03:00,24.0,20.0,30.21,SSE,158,7.0,10.0,86,0.00,,,0.00,,2013-03-07 10:03:00,
2013-03-07 04:13:00,24.0,20.0,30.21,SSE,158,7.0,10.0,86,0.00,,,0.00,,2013-03-07 10:13:00,
2013-03-07 04:23:00,24.0,20.0,30.21,SSE,165,8.0,13.0,86,0.00,,,0.00,,2013-03-07 10:23:00,
2013-03-07 04:33:00,24.0,20.0,30.21,SSE,167,8.0,12.0,86,0.00,,,0.00,,2013-03-07 10:33:00,
2013-03-07 04:42:00,24.0,20.0,30.21,SSE,167,8.0,12.0,86,0.00,,,0.00,,2013-03-07 10:42:00,
2013-03-07 04:52:00,24.0,20.0,30.21,SSE,160,7.0,11.0,86,0.00,,,0.00,,2013-03-07 10:52:00,
2013-03-07 05:03:00,24.0,20.0,30.20,SSE,157,6.0,11.0,86,0.00,,,0.00,,2013-03-07 11:03:00,
2013-03-07 05:12:00,24.0,20.0,30.20,SSE,157,6.0,11.0,86,0.00,,,0.00,,2013-03-07 11:12:00,
2013-03-07 05:23:00,24.0,20.0,30.20,SSE,166,8.0,12.0,86,0.00,,,0.00,,2013-03-07 11:23:00,
2013-03-07 05:33:00,24.0,20.0,30.20,SSE,166,8.0,14.0,86,0.00,,,0.00,,2013-03-07 11:33:00,
2013-03-07 05:43:00,24.0,20.0,30.20,SSE,166,8.0,14.0,86,0.00,,,0.00,,2013-03-07 11:43:00,
2013-03-07 05:53:00,24.0,20.0,30.20,SSE,163,8.0,13.0,86,0.00,,,0.00,,2013-03-07 11:53:00,
2013-03-07 06:03:00,24.0,20.0,30.21,South,172,7.0,12.0,86,0.00,,,0.00,,2013-03-07 12:03:00,
2013-03-07 06:12:00,24.0,20.0,30.21,South,172,7.0,12.0,86,0.00,,,0.00,,2013-03-07 12:12:00,
2013-03-07 06:22:00,24.0,20.0,30.21,SSE,155,9.0,12.0,86,0.00,,,0.00,,2013-03-07 12:22:00,
2013-03-07 06:33:00,23.0,20.0,30.21,SSE,157,7.0,11.0,87,0.00,,,0.00,,2013-03-07 12:33:00,
2013-03-07 06:42:00,23.0,20.0,30.21,SSE,157,7.0,11.0,87,0.00,,,0.00,,2013-03-07 12:42:00,
2013-03-07 06:52:00,23.0,20.0,30.21,SSE,157,7.0,11.0,87,0.00,,,0.00,,2013-03-07 12:52:00,
2013-03-07 07:02:00,23.0,20.0,30.21,SSE,159,8.0,12.0,87,0.00,,,0.00,,2013-03-07 13:02:00,
2013-03-07 07:12:00,23.0,20.0,30.21,SSE,159,8.0,12.0,87,0.00,,,0.00,,2013-03-07 13:12:00,
2013-03-07 07:22:00,24.0,21.0,30.22,SSE,155,8.0,12.0,87,0.00,,,0.00,,2013-03-07 13:22:00,
2013-03-07 07:32:00,24.0,21.0,30.21,SSE,165,8.0,12.0,87,0.00,,,0.00,,2013-03-07 13:32:00,
2013-03-07 07:42:00,24.0,21.0,30.21,SSE,165,8.0,12.0,87,0.00,,,0.00,,2013-03-07 13:42:00,
2013-03-07 07:53:00,24.0,21.0,30.21,SSE,161,10.0,14.0,87,0.00,,,0.00,,2013-03-07 13:53:00,
2013-03-07 08:02:00,25.0,21.0,30.21,SSE,162,10.0,15.0,86,0.00,,,0.00,,2013-03-07 14:02:00,
2013-03-07 08:12:00,25.0,21.0,30.21,SSE,162,10.0,15.0,86,0.00,,,0.00,,2013-03-07 14:12:00,
2013-03-07 08:22:00,26.0,22.0,30.20,SSE,167,9.0,15.0,86,0.00,,,0.00,,2013-03-07 14:22:00,
2013-03-07 08:33:00,26.0,22.0,30.21,South,180,10.0,15.0,84,0.00,,,0.00,,2013-03-07 14:33:00,
2013-03-07 08:42:00,26.0,22.0,30.21,South,180,10.0,15.0,84,0.00,,,0.00,,2013-03-07 14:42:00,
2013-03-07 08:53:00,28.0,24.0,30.22,South,173,9.0,13.0,84,0.00,,,0.00,,2013-03-07 14:53:00,
2013-03-07 09:03:00,29.0,24.0,30.21,SSE,166,10.0,17.0,81,0.00,,,0.00,,2013-03-07 15:03:00,
2013-03-07 09:12:00,29.0,24.0,30.21,SSE,166,10.0,17.0,81,0.00,,,0.00,,2013-03-07 15:12:00,
2013-03-07 09:22:00,29.0,24.0,30.21,SSE,166,10.0,17.0,81,0.00,,,0.00,,2013-03-07 15:22:00,
2013-03-07 09:32:00,32.0,26.0,30.22,SSE,161,10.0,15.0,77,0.00,,,0.00,,2013-03-07 15:32:00,
2013-03-07 09:42:00,32.0,26.0,30.22,SSE,161,10.0,15.0,77,0.00,,,0.00,,2013-03-07 15:42:00,
2013-03-07 09:53:00,33.0,26.0,30.22,SSE,168,10.0,16.0,75,0.00,,,0.00,,2013-03-07 15:53:00,
2013-03-07 10:02:00,35.0,27.0,30.21,SSE,163,10.0,15.0,73,0.00,,,0.00,,2013-03-07 16:02:00,
2013-03-07 10:12:00,35.0,27.0,30.21,SSE,163,10.0,15.0,73,0.00,,,0.00,,2013-03-07 16:12:00,
2013-03-07 10:23:00,36.0,27.0,30.20,South,184,11.0,16.0,69,0.00,,,0.00,,2013-03-07 16:23:00,
2013-03-07 10:32:00,38.0,28.0,30.19,SSE,159,11.0,17.0,67,0.00,,,0.00,,2013-03-07 16:32:00,
2013-03-07 10:42:00,38.0,28.0,30.19,SSE,159,11.0,17.0,67,0.00,,,0.00,,2013-03-07 16:42:00,
2013-03-07 10:52:00,40.0,28.0,30.19,SSE,162,9.0,18.0,63,0.00,,,0.00,,2013-03-07 16:52:00,
2013-03-07 11:02:00,41.0,29.0,30.18,South,169,11.0,17.0,61,0.00,,,0.00,,2013-03-07 17:02:00,
2013-03-07 11:12:00,41.0,29.0,30.18,South,169,11.0,17.0,61,0.00,,,0.00,,2013-03-07 17:12:00,
2013-03-07 11:22:00,42.0,29.0,30.18,SSE,163,10.0,16.0,59,0.00,,,0.00,,2013-03-07 17:22:00,
2013-03-07 11:33:00,43.0,28.0,30.17,South,175,11.0,17.0,55,0.00,,,0.00,,2013-03-07 17:33:00,
2013-03-07 11:53:00,45.0,29.0,30.16,SSE,155,11.0,16.0,54,0.00,,,0.00,,2013-03-07 17:53:00,
2013-03-07 12:03:00,47.0,30.0,30.16,South,174,11.0,17.0,52,0.00,,,0.00,,2013-03-07 18:03:00,
2013-03-07 12:12:00,47.0,30.0,30.16,South,174,11.0,17.0,52,0.00,,,0.00,,2013-03-07 18:12:00,
2013-03-07 12:22:00,48.0,29.0,30.15,SSE,163,11.0,18.0,48,0.00,,,0.00,,2013-03-07 18:22:00,
2013-03-07 12:32:00,50.0,30.0,30.14,SSW,204,10.0,18.0,46,0.00,,,0.00,,2013-03-07 18:32:00,
2013-03-07 12:42:00,50.0,30.0,30.14,SSW,204,10.0,18.0,46,0.00,,,0.00,,2013-03-07 18:42:00,
2013-03-07 12:52:00,51.0,30.0,30.14,South,188,10.0,19.0,45,0.00,,,0.00,,2013-03-07 18:52:00,
2013-03-07 13:03:00,52.0,31.0,30.12,South,178,11.0,19.0,44,0.00,,,0.00,,2013-03-07 19:03:00,
2013-03-07 13:12:00,52.0,31.0,30.12,South,178,11.0,19.0,44,0.00,,,0.00,,2013-03-07 19:12:00,
2013-03-07 13:23:00,53.0,29.0,30.11,South,175,9.0,18.0,40,0.00,,,0.00,,2013-03-07 19:23:00,
2013-03-07 13:34:00,53.0,27.0,30.11,SSW,209,10.0,17.0,37,0.00,,,0.00,,2013-03-07 19:34:00,
2013-03-07 13:43:00,53.0,27.0,30.11,SSW,209,10.0,17.0,37,0.00,,,0.00,,2013-03-07 19:43:00,
2013-03-07 13:52:00,54.0,30.0,30.10,South,181,8.0,15.0,39,0.00,,,0.00,,2013-03-07 19:52:00,
2013-03-07 14:02:00,55.0,30.0,30.09,SSW,204,9.0,19.0,38,0.00,,,0.00,,2013-03-07 20:02:00,
2013-03-07 14:13:00,55.0,30.0,30.09,SSW,204,9.0,19.0,38,0.00,,,0.00,,2013-03-07 20:13:00,
2013-03-07 14:22:00,56.0,31.0,30.08,SW,223,8.0,19.0,38,0.00,,,0.00,,2013-03-07 20:22:00,
2013-03-07 14:33:00,55.0,30.0,30.07,SSW,204,8.0,17.0,38,0.00,,,0.00,,2013-03-07 20:33:00,
2013-03-07 14:42:00,55.0,30.0,30.07,SSW,204,8.0,17.0,38,0.00,,,0.00,,2013-03-07 20:42:00,
2013-03-07 14:53:00,55.0,30.0,30.07,SSW,204,8.0,17.0,38,0.00,,,0.00,,2013-03-07 20:53:00,
2013-03-07 15:02:00,56.0,29.0,30.07,South,191,9.0,15.0,35,0.00,,,0.00,,2013-03-07 21:02:00,
2013-03-07 15:12:00,56.0,29.0,30.07,South,191,9.0,15.0,35,0.00,,,0.00,,2013-03-07 21:12:00,
2013-03-07 15:22:00,57.0,30.0,30.07,South,188,9.0,15.0,36,0.00,,,0.00,,2013-03-07 21:22:00,
2013-03-07 15:32:00,57.0,30.0,30.07,South,188,9.0,15.0,36,0.00,,,0.00,,2013-03-07 21:32:00,
2013-03-07 15:42:00,57.0,30.0,30.07,South,188,9.0,15.0,36,0.00,,,0.00,,2013-03-07 21:42:00,
2013-03-07 15:52:00,57.0,30.0,30.07,South,188,7.0,16.0,35,0.00,,,0.00,,2013-03-07 21:52:00,
2013-03-07 16:02:00,56.0,29.0,30.06,South,178,8.0,16.0,36,0.00,,,0.00,,2013-03-07 22:02:00,
2013-03-07 16:12:00,56.0,29.0,30.06,South,178,8.0,16.0,36,0.00,,,0.00,,2013-03-07 22:12:00,
2013-03-07 16:22:00,56.0,30.0,30.06,South,181,9.0,19.0,37,0.00,,,0.00,,2013-03-07 22:22:00,
2013-03-07 16:32:00,57.0,31.0,30.06,SSW,193,7.0,12.0,37,0.00,,,0.00,,2013-03-07 22:32:00,
2013-03-07 16:42:00,57.0,31.0,30.06,SSW,193,7.0,12.0,37,0.00,,,0.00,,2013-03-07 22:42:00,
2013-03-07 16:53:00,57.0,31.0,30.06,SW,214,8.0,12.0,37,0.00,,,0.00,,2013-03-07 22:53:00,
2013-03-07 17:03:00,56.0,30.0,30.05,South,190,8.0,13.0,37,0.00,,,0.00,,2013-03-07 23:03:00,
2013-03-07 17:12:00,56.0,30.0,30.05,South,190,8.0,13.0,37,0.00,,,0.00,,2013-03-07 23:12:00,
2013-03-07 17:22:00,56.0,31.0,30.06,South,180,6.0,12.0,39,0.00,,,0.00,,2013-03-07 23:22:00,
2013-03-07 17:33:00,55.0,32.0,30.07,SSW,200,5.0,10.0,41,0.00,,,0.00,,2013-03-07 23:33:00,
2013-03-07 17:43:00,55.0,32.0,30.07,SSW,200,5.0,10.0,41,0.00,,,0.00,,2013-03-07 23:43:00,
2013-03-07 17:52:00,54.0,31.0,30.07,SSW,202,5.0,8.0,42,0.00,,,0.00,,2013-03-07 23:52:00,
2013-03-07 18:04:00,53.0,32.0,30.08,South,184,3.0,8.0,44,0.00,,,0.00,,2013-03-08 00:04:00,
2013-03-07 18:12:00,53.0,32.0,30.08,South,184,3.0,8.0,44,0.00,,,0.00,,2013-03-08 00:12:00,
2013-03-07 18:23:00,51.0,31.0,30.07,South,182,5.0,8.0,47,0.00,,,0.00,,2013-03-08 00:23:00,
2013-03-07 18:34:00,50.0,32.0,30.07,South,184,4.0,11.0,49,0.00,,,0.00,,2013-03-08 00:34:00,
2013-03-07 18:43:00,50.0,32.0,30.07,South,184,4.0,11.0,49,0.00,,,0.00,,2013-03-08 00:43:00,
2013-03-07 18:52:00,48.0,31.0,30.07,South,169,4.0,7.0,52,0.00,,,0.00,,2013-03-08 00:52:00,
2013-03-07 19:02:00,47.0,31.0,30.08,SSE,164,4.0,8.0,54,0.00,,,0.00,,2013-03-08 01:02:00,
2013-03-07 19:11:00,47.0,31.0,30.08,SSE,164,4.0,8.0,54,0.00,,,0.00,,2013-03-08 01:11:00,
2013-03-07 19:21:00,46.0,32.0,30.08,SSE,161,6.0,8.0,57,0.00,,,0.00,,2013-03-08 01:21:00,
2013-03-07 19:33:00,46.0,32.0,30.08,SSE,161,6.0,8.0,57,0.00,,,0.00,,2013-03-08 01:33:00,
2013-03-07 19:42:00,46.0,32.0,30.08,SSE,161,6.0,8.0,57,0.00,,,0.00,,2013-03-08 01:42:00,
2013-03-07 19:51:00,44.0,31.0,30.09,SSE,158,4.0,6.0,61,0.00,,,0.00,,2013-03-08 01:51:00,
2013-03-07 20:01:00,42.0,30.0,30.10,SSE,155,3.0,5.0,63,0.00,,,0.00,,2013-03-08 02:01:00,
2013-03-07 20:11:00,40.0,29.0,30.11,SSE,154,3.0,5.0,65,0.00,,,0.00,,2013-03-08 02:11:00,
2013-03-07 20:22:00,40.0,29.0,30.11,SSE,154,3.0,5.0,65,0.00,,,0.00,,2013-03-08 02:22:00,
2013-03-07 20:32:00,40.0,30.0,30.11,SSE,157,4.0,6.0,68,0.00,,,0.00,,2013-03-08 02:32:00,
2013-03-07 20:42:00,40.0,30.0,30.11,SSE,157,4.0,6.0,68,0.00,,,0.00,,2013-03-08 02:42:00,
2013-03-07 20:52:00,39.0,30.0,30.10,SSE,155,3.0,5.0,69,0.00,,,0.00,,2013-03-08 02:52:00,
2013-03-07 21:02:00,37.0,28.0,30.10,SSE,149,3.0,5.0,71,0.00,,,0.00,,2013-03-08 03:02:00,
2013-03-07 21:12:00,37.0,28.0,30.10,SSE,149,3.0,5.0,71,0.00,,,0.00,,2013-03-08 03:12:00,
2013-03-07 21:22:00,38.0,30.0,30.11,SSE,150,6.0,9.0,73,0.00,,,0.00,,2013-03-08 03:22:00,
2013-03-07 21:32:00,39.0,30.0,30.11,South,170,8.0,13.0,71,0.00,,,0.00,,2013-03-08 03:32:00,
2013-03-07 21:42:00,39.0,30.0,30.11,South,170,8.0,13.0,71,0.00,,,0.00,,2013-03-08 03:42:00,
2013-03-07 21:52:00,38.0,30.0,30.11,SSE,157,7.0,10.0,73,0.00,,,0.00,,2013-03-08 03:52:00,
2013-03-07 22:01:00,37.0,29.0,30.12,SSE,151,5.0,11.0,74,0.00,,,0.00,,2013-03-08 04:01:00,
2013-03-07 22:11:00,37.0,29.0,30.12,SSE,151,5.0,11.0,74,0.00,,,0.00,,2013-03-08 04:11:00,
2013-03-07 22:22:00,37.0,29.0,30.12,SSE,151,5.0,11.0,74,0.00,,,0.00,,2013-03-08 04:22:00,
2013-03-07 22:32:00,36.0,29.0,30.13,SSE,159,6.0,10.0,76,0.00,,,0.00,,2013-03-08 04:32:00,
2013-03-07 22:42:00,36.0,29.0,30.13,SSE,159,6.0,10.0,76,0.00,,,0.00,,2013-03-08 04:42:00,
2013-03-07 22:52:00,35.0,28.0,30.13,SSE,161,6.0,10.0,76,0.00,,,0.00,,2013-03-08 04:52:00,
2013-03-07 23:02:00,35.0,29.0,30.13,SSE,161,7.0,12.0,77,0.00,,,0.00,,2013-03-08 05:02:00,
2013-03-07 23:12:00,35.0,29.0,30.13,SSE,161,7.0,12.0,77,0.00,,,0.00,,2013-03-08 05:12:00,
2013-03-07 23:22:00,35.0,29.0,30.13,South,175,6.0,10.0,78,0.00,,,0.00,,2013-03-08 05:22:00,
2013-03-07 23:32:00,34.0,28.0,30.13,SSE,155,5.0,8.0,78,0.00,,,0.00,,2013-03-08 05:32:00,
2013-03-07 23:42:00,34.0,28.0,30.13,SSE,155,5.0,8.0,78,0.00,,,0.00,,2013-03-08 05:42:00,
2013-03-07 23:52:00,33.0,27.0,30.14,SE,144,4.0,6.0,79,0.00,,,0.00,,2013-03-08 05:52:00,